Location: Arboyeti
(42.1122°N, 44.6017°E)
Time: 17:10:22
(UTC+00:00)

BREEZE-M DEB (TANK) - Pass Details

Date: 19 April 2021
Orbit: 317 x 14227 km, 49.6° (Epoch: 07 May)

Event Time Altitude Azimuth Distance (km) Brightness Sun altitude
Rises 18:08:17 0° 303° (WNW) 2,115 7.0 -23.5°
Reaches altitude 10° 18:10:03 10° 312° (NW) 1,224 5.5 -23.7°
Enters shadow 18:11:02 22° 327° (NNW) 787 4.2 -23.8°
